AirNav   ATP
 
 733 users online  

2T1 Muleshoe Municipal Airport
Muleshoe, Texas, USA

GOING TO MULESHOE?


FAA INFORMATION EFFECTIVE 16 AUGUST 2018

Location

FAA Identifier: 2T1
Lat/Long: 34-11-06.4910N / 102-38-27.9530W
34-11.108183N / 102-38.465883W
34.1851364 / -102.6410981
(estimated)
Elevation: 3779.3 ft. / 1151.9 m (surveyed)
Variation: 09E (1990)
From city: 4 miles SE of MULESHOE, TX
Time zone: UTC -5 (UTC -6 during Standard Time)
Zip code: 79347

Airport Operations

Airport use: Open to the public
Activation date: 06/1989
Control tower: no
ARTCC: FORT WORTH CENTER
FSS: FORT WORTH FLIGHT SERVICE STATION
NOTAMs facility: FTW (NOTAM-D service available)
Attendance: UNATNDD
Wind indicator: lighted
Segmented circle: yes
Lights: ACTVT MIRL AND PAPI RY 07/25 - 122.8.
Beacon: white-green (lighted land airport)
Operates sunset to sunrise.

Airport Communications

CTAF: 122.9
  • APCH/DEP SERVICE PROVIDED BY FORT WORTH ARTCC ON FREQS 126.45/316.1 (PLAINVIEW RCAG).

Nearby radio navigation aids

VOR radial/distance  VOR name  Freq  Var
TXOr141/21.0TEXICO VORTAC112.2011E

Airport Services

Fuel available: 100LL
FOR EMERGENCY FUEL CALL 806-272-4569.
Parking: tiedowns

Runway Information

Runway 7/25

Dimensions: 5100 x 60 ft. / 1554 x 18 m
Surface: asphalt, in good condition
Weight bearing capacity: 
Single wheel: 12.5
Runway edge lights: medium intensity
RUNWAY 7  RUNWAY 25
Latitude: 34-11.017567N34-11.198633N
Longitude: 102-38.959550W102-37.971650W
Elevation: 3779.3 ft.3767.3 ft.
Traffic pattern: leftleft
Runway heading: 069 magnetic, 078 true249 magnetic, 258 true
Markings: nonprecision, in good conditionnonprecision, in good condition
Visual slope indicator: 2-light PAPI on left (3.00 degrees glide path)2-light PAPI on left (3.00 degrees glide path)
Touchdown point: yes, no lightsyes, no lights
Obstructions: 50 ft. pole, 1410 ft. from runway, 24:1 slope to clear
2-3 FT BRUSH 126-200 FT FM THR; ACRS APCH.
3 ft. brush, 200 ft. from runway
2-3 FT BRUSH 83-200 FT FM THR; ACRS APCH.

Airport Ownership and Management from official FAA records

Ownership: Publicly-owned
Owner: CITY OF MULESHOE
215 S FIRST ST
MULESHOE, TX 79347
Phone 806-272-4528
Manager: ZANEA CARPENTER, CITY SECRETARY
215 S FIRST ST
MULESHOE, TX 79347
Phone 806-272-4528

Airport Operational Statistics

Aircraft based on the field: 12
Single engine airplanes: 10
Multi engine airplanes: 2
    
Aircraft operations: avg 57/week *
67% local general aviation
33% transient general aviation
* for 12-month period ending 31 January 2018

Additional Remarks

DEER ON & INVOF ARPT.

Instrument Procedures

NOTE: All procedures below are presented as PDF files. If you need a reader for these files, you should download the free Adobe Reader.

NOT FOR NAVIGATION. Please procure official charts for flight.
FAA instrument procedures published for use from 16 August 2018 at 0901Z to 13 September 2018 at 0900Z.

 
IAPs - Instrument Approach Procedures
RNAV (GPS)-B   download (130KB)
VOR/DME-A   download (140KB)

Other nearby airports with instrument procedures:

KLIU - Littlefield Taylor Brown Municipal Airport (20 nm SE)
KCVN - Clovis Municipal Airport (26 nm NW)
KCVS - Cannon Air Force Base (36 nm W)
KPRZ - Portales Municipal Airport (38 nm W)
KLLN - Levelland Municipal Airport (40 nm S)
 
Loc | Ops | Rwys | IFR | FBO | Links
Com | Nav | Svcs | Stats | Notes

Chandler Aviation LLC
 
Area around 2T1 (Muleshoe Municipal Airport)
 
Road maps at: MapQuest Bing Google
 
Aerial photo
No photo
 
Sectional chart

 
Airport distance calculator
Flying to Muleshoe Municipal Airport? Find the distance to fly.

From to 2T1

Sunrise and sunset
Times for 21-Aug-2018
 Local
(UTC-5)
 Zulu
(UTC)
Morning civil twilight06:5111:51
Sunrise07:1712:17
Sunset20:3001:30
Evening civil twilight20:5601:56

Current date and time
Zulu (UTC)  22-Aug-2018 03:58:06
Local (UTC-5)  21-Aug-2018 22:58:06
 
METAR
KCVN 
25nm NW 
220256Z AUTO 16006KT 10SM CLR 22/17 A3023 RMK AO2 SLPNO T02170167 53010
KCVS 
35nm W 
220258Z AUTO 15005KT 10SM CLR 23/17 A3023 RMK AO2 SLP181 T02310173 52011 $
KHRX 
43nm N 
220335Z AUTO 14007KT 10SM CLR 25/17 A3024 RMK AO2 T02500165
KPVW 
46nm E 
220335Z AUTO 13008KT 10SM CLR 24/17 A3020 RMK AO2 T02410173
TAF
KCVS 
35nm W 
220201Z 2202/2308 16009KT 9999 FEW100 QNH3019INS BECMG 2207/2208 VRB06KT 9999 FEW100 QNH3023INS BECMG 2217/2218 22009KT 9999 SCT100 QNH3022INS BECMG 2219/2220 22012G18KT 9999 SCT100 QNH3018INS BECMG 2302/2303 24009KT 9999 FEW100 QNH3016INS BECMG 2305/2306 VRB06KT 9999 FEW100 QNH3018INS TX32/2223Z TN19/2212Z
NOTAMs
Click for the latest NOTAMs
NOTAMs are issued by the DoD/FAA and will open in a separate window not controlled by AirNav.

 

 
 

FBO, Fuel Providers, and Aircraft Ground Support

  
 Business Name 
 
 Contact 
 
 Services / Description 
 
Fuel Prices
 
Comments
  
City of Muleshoe 806-272-4528
[web site]
[email]
Aviation fuel

More info about City of Muleshoe
Phillips 66
100LL
SS $4.46 
 Updated 14-Aug-2018
 
   2 read write
SS=Self service
Update Fuel Prices
 

Would you like to see your business listed on this page?

 If your business provides an interesting product or service to pilots, flight crews, aircraft, or users of the Muleshoe Municipal Airport, you should consider listing it here.  To start the listing process, click on the button below
 
Add a business
 

Other Pages about Muleshoe Municipal Airport

www.city-of-muleshoe.com/...
 
Update a link
 
Copyright © AirNav, LLC. All rights reserved. Privacy Policy  Contact